User: anonymous   Login
Location: Unspecified
(0.0000°N, 0.0000°E)
Time: 12:37:57
(UTC+00:00)
Language:

GALILEO 11 (268) - Orbit

View from above orbital plane
View from above orbital plane
View from above satellite
View from above satellite

Ground track
Ground track

The orbit data is extracted from the following two-line orbital elements,

1 41175U 15079B   17087.09405151 -.00000000 +00000-0 +00000-0 0  9999
2 41175 054.9222 193.9642 0003416 278.2634 081.6970 01.70474072007947
Epoch (UTC): 28 March 2017 02:15:26
Eccentricity: 0.0003416
inclination: 54.9222°
perigee height: 23212 km
apogee height: 23232 km
right ascension of ascending node: 193.9642°
argument of perigee: 278.2634°
revolutions per day: 1.70474072
mean anomaly at epoch: 81.6970°
orbit number at epoch: 794

The dashed part of the orbit path shows where the satellite is in the earth's shadow,  

DLR